Location: Moscow
(55.7500°N, 37.5830°E)
Time: 22:44:54
(UTC+03:00)

COSMOS 2251 DEB - Pass Details

Date: 08 July 2022
Orbit: 738 x 847 km, 74.1° (Epoch: 17 August)

Event Time Altitude Azimuth Distance (km) Brightness Sun altitude
Rises 22:32:20 0° 301° (WNW) 3,284 ? -7.6°
Reaches altitude 10° 22:37:08 10° 340° (NNW) 2,324 ? -7.9°
Maximum altitude 22:38:15 11° 352° (N) 2,275 ? -8.0°
Drops below altitude 10° 22:39:22 10° 4° (N) 2,311 ? -8.1°
Sets 22:44:05 0° 43° (NE) 3,212 ? -8.4°
